Showing default

OPTUS D2, 32252

Orbit data source: Space-Track

OPTUS D2, 32252 is a payload satellite owned by SingTel Optus (AU) in GEO that was launched on Fri, 05 Oct 2007 UTC via an ARIANE 5GS launch vehicle from the French Guiana (FRGUI). Payload-class satellites include a variety of spacecraft equipped with specific instruments for various scientific and technological missions. These include communications satellites like Starlink; space stations such as the ISS; scientific satellites like the Hubble; Earth observation satellites from companies like Planet Labs, Umbra, and HawkEye 360; GPS; miniature CubeSats for education and research; and military/defense satellites.

Not visible in the next 10 days
Identifier
32252, 2007-044A
Orbit
GEO
Country
Flag of AUAU / AUS
Related business
Manufacturer
OSC
Mission
Non-operational Commercial Communications
Bus & Motor
OSC STAR 2.4, BT-4
Mass
2,350 kg wet, 1,079 kg dry
Launch date (UTC)
2007-10-05 (19 years ago)
Launch vehicle
ARIANE 5GS
Launch site
French Guiana (FRGUI)
Object type
Payload
Rocket body
Debris
Shape & HBR
Box + 2 Pan, 11.2 m
Radar Cross Section
24.712 m², Large (>1 m²)

Expand to show TLE details & history
Last TLE update: 8 hours ago

TLE from 8 hours ago
0 OPTUS D2
1 32252U 07044A   26101.16155946  .00000112  00000-0  00000-0 0  9990
2 32252   1.9049  82.8096 0003167 289.4934 303.5895  0.99340036 67873
Epoch: 2026-04-11T03:52Z
TLE epoch observation values (Epoch: 2026-04-11T03:52:38.737Z)
Latitude
-1.50495°
Longitude
58.30185°
Altitude
36,042.09 km
Speed
3.066 km/s
True Right ascension
21h 03m 23s
True Declination
-1° 30' 12"
Sunlit
Object was in daylight at epoch
Visualization orbit readout
Latitude
Unknown
Longitude
Unknown
Altitude
Unknown
Speed
Unknown
Apparent Right ascension
Unknown
Apparent Declination
Unknown
Sunlit
N/A
Visualization observer readout
Local Sidereal Time
18:04:24
Azimuth
Unknown
Elevation
Unknown
Doppler factor
Unknown
Orbital elements
Apogee altitude
36,064.337 km
Perigee altitude
36,037.463 km
Semi-major axis
42,429.037 km
Eccentricity
0.00032
Inclination
1.9049°
RAAN
82.8096°
Arg. of periapsis
289.4934°
True anomaly
303.55926°
Mean anomaly
303.5895°
Eccentric anomaly
303.57438°
Mean motion
0.24834 °/min
Orbital period
1,449.62 mins
BSTAR
0
Loading maneuver chart data...
Computing Atmospheric mass density...
Loading historical data...
Loading historical data...
Loading historical data...
Loading historical data...
Loading historical data...
Loading historical data...
Loading historical data...
Other satellites on launch #44 in the year 2007 (2007-10-05 UTC)

Documentation

Showing up to 5 results
|